Weather observations for the past three days for
Dallas / Addison Airport
Imperial (Metric)
Date Time (cdt) Wind (mph) Vis. (mi.) Weather Sky Cond. Temperature (ºF) Relative Humidity Wind Chill (°F) Heat Index (°F) Pressure Precipitation (in)
Air Dwpt 6 hour altimeter (in) sea level (mb) 1 hr 3 hr 6 hr
Max. Min.
12 19:47 SE 14 G 18 13.00 A Few Clouds FEW065 91.4 66.2 44% 94 30.06 0.0
12 18:47 SE 14 13.00 A Few Clouds FEW065 93.2 64.4 39% 95 30.05 0.0
12 17:47 S 6 G 16 13.00 Clear SKC 95 64.4 36% 97 30.05 0.0
12 16:47 SE 10 13.00 Clear SKC 95 62.6 34% 96 30.06 0.0
12 15:47 S 6 G 17 13.00 Clear SKC 95 64.4 36% 97 30.06 0.0
12 14:47 E 9 G 17 13.00 Partly Cloudy SCT060 SCT070 93.2 64.4 39% 95 30.08 0.0
12 13:47 S 7 10.00 Partly Cloudy SCT060 93.2 64.4 39% 95 30.09 0.0
12 12:47 SE 9 10.00 Partly Cloudy SCT055 91.4 64.4 41% 93 30.11 0.0
12 11:47 S 6 13.00 Partly Cloudy SCT047 91.4 66.2 44% 94 30.11 0.0
12 10:47 S 12 13.00 Clear SKC 89.6 66.2 46% 92 30.11 0.0
12 09:47 S 6 13.00 Clear SKC 84.2 68 58% 87 30.11 0.0
12 08:47 Calm 13.00 Clear SKC 82.4 69.8 66% 86 30.09 0.0
12 07:47 S 12 13.00 Clear SKC 80.6 69.8 70% 84 30.09 0.0
12 06:47 S 12 13.00 Clear SKC 78.8 68 70% 81 30.07 0.0
12 05:47 Calm 13.00 Clear SKC 78.8 66.2 65% 81 30.06 0.0
12 05:35 S 5 10.00 Fair CLR 78.6 67.1 68% 81 30.06 0.0
12 05:15 S 3 10.00 Fair CLR 78.8 67.1 67% 81 30.05 0.0
12 04:55 S 5 10.00 Fair CLR 79 67.1 67% 81 30.04 0.0
12 04:35 S 6 10.00 Fair CLR 79.3 66.9 66% 82 30.04 0.0
12 04:15 S 3 10.00 Fair CLR 79.7 66.6 64% 82 30.04 0.0
12 03:55 S 5 10.00 Fair CLR 80.1 66.2 63% 82 30.03 0.0
12 03:35 S 5 10.00 Fair CLR 80.6 65.7 60% 83 30.03 0.0
12 03:15 S 7 10.00 Fair CLR 81 65.3 59% 83 30.03 0.0
12 02:55 S 5 10.00 Fair CLR 81.5 65.3 58% 83 30.03 0.0
12 02:35 S 7 10.00 Fair CLR 81.5 65.3 58% 83 30.03 0.0
12 02:15 S 7 10.00 Fair CLR 81.7 65.5 58% 84 30.04 0.0
12 01:55 S 6 10.00 Fair CLR 82.4 65.3 56% 84 30.03 0.0
12 01:35 S 8 10.00 Fair CLR 82.8 65.3 56% 85 30.04 0.0
12 01:15 S 7 10.00 Fair CLR 82.9 65.3 55% 85 30.04 0.0
12 00:55 S 7 10.00 Fair CLR 83.7 65.3 94.6 83.5 54% 86 30.04 0.0
12 00:35 S 9 10.00 Fair CLR 83.5 65.1 54% 85 30.05 0.0
12 00:15 S 9 10.00 Fair CLR 84.2 64.9 52% 86 30.05 0.0
11 23:55 S 8 10.00 Fair CLR 84.2 65.3 53% 86 30.05 0.0
11 23:35 S 8 10.00 Fair CLR 85.1 65.3 52% 87 30.04 0.0
11 23:15 S 7 10.00 Fair CLR 85.3 65.3 51% 87 30.04 0.0
11 22:55 SE 9 10.00 Fair CLR 85.8 65.3 50% 88 30.04 0.0
11 22:35 S 10 10.00 Fair CLR 86.2 64.6 49% 88 30.04 0.0
11 22:15 SE 12 10.00 Fair CLR 86.9 64.4 47% 88 30.03 0.0
11 21:47 SE 9 13.00 Clear SKC 87.8 64.4 46% 89 30.03 0.0
11 19:47 SE 10 13.00 Clear SKC 91.4 62.6 38% 92 30 0.0
11 18:50 SE 10 13.00 A Few Clouds FEW070 95 62.6 34% 96 30 0.0
11 17:59 SE 8 G 16 13.00 Clear SKC 96.8 60.8 30% 97 29.99 0.0
11 16:47 SE 6 13.00 Partly Cloudy SCT075 96.8 62.6 32% 98 30.01 0.0
11 15:47 E 6 13.00 Partly Cloudy SCT065 96.8 62.6 32% 98 30.02 0.0
11 14:47 S 5 13.00 Partly Cloudy SCT065 95 62.6 34% 96 30.03 0.0
11 13:47 Calm 13.00 Partly Cloudy SCT065 95 62.6 34% 96 30.04 0.0
11 12:47 S 3 13.00 Clear SKC 91.4 62.6 38% 92 30.06 0.0
11 11:47 S 6 13.00 Clear SKC 91.4 64.4 41% 93 30.07 0.0
11 10:47 S 6 13.00 Clear SKC 89.6 64.4 43% 91 30.08 0.0
11 09:47 Calm 13.00 A Few Clouds FEW250 87.8 66.2 49% 90 30.08 0.0
11 08:47 SE 6 13.00 A Few Clouds FEW250 84.2 66.2 55% 87 30.09 0.0
11 07:47 S 5 13.00 Clear SKC 80.6 66.2 62% 83 30.07 0.0
11 06:47 SE 6 13.00 Partly Cloudy SCT070 78.8 66.2 65% 81 30.06 0.0
11 05:47 SE 5 13.00 Partly Cloudy FEW100 SCT250 78.8 66.2 65% 81 30.05 0.0
11 05:35 S 5 10.00 Fair CLR 77.9 66.2 67% 80 30.04 0.0
11 05:15 S 6 10.00 Fair CLR 77.7 66.4 68% 80 30.04 0.0
11 04:55 S 3 10.00 Fair CLR 77.9 66.2 67% 80 30.03 0.0
11 04:35 S 3 10.00 Fair CLR 79.9 66.2 63% 82 30.03 0.0
11 04:15 S 5 10.00 Fair CLR 79.3 66.2 64% 81 30.03 0.0
11 03:55 S 5 10.00 Fair CLR 80.1 66.2 63% 82 30.03 0.0
11 03:35 S 5 10.00 Fair CLR 79.7 66.2 63% 82 30.03 0.0
11 03:15 S 3 10.00 Fair CLR 79.3 66.4 65% 81 30.03 0.0
11 02:55 SE 3 10.00 Fair CLR 79.9 66.2 63% 82 30.03 0.0
11 02:35 SE 3 10.00 Fair CLR 79.9 66 63% 82 30.03 0.0
11 02:15 SE 5 10.00 Fair CLR 80.4 66.2 62% 83 30.03 0.0
11 01:55 SE 3 10.00 Fair CLR 81 66 61% 83 30.04 0.0
11 01:35 SE 3 10.00 Fair CLR 81.5 65.8 59% 84 30.04 0.0
11 01:15 SE 5 10.00 Fair CLR 81.5 65.5 58% 83 30.04 0.0
11 00:55 S 7 10.00 Fair CLR 81.9 65.5 90.5 81.7 58% 84 30.04 0.0
11 00:35 S 6 10.00 Fair CLR 81.7 65.3 58% 84 30.04 0.0
11 00:15 SE 6 10.00 Fair CLR 82.8 65.1 55% 85 30.04 0.0
10 23:55 SE 7 10.00 Fair CLR 82.8 64.8 55% 84 30.04 0.0
10 23:35 SE 7 10.00 Fair CLR 82.6 64.6 55% 84 30.03 0.0
10 23:15 S 6 10.00 Fair CLR 83.3 64.9 54% 85 30.02 0.0
10 22:55 S 8 10.00 Fair CLR 83.3 65.3 55% 85 30.02 0.0
10 22:35 S 9 10.00 Fair CLR 83.5 65.8 55% 86 30.02 0.0
10 22:15 SE 10 G 17 10.00 Fair CLR 84.2 65.5 53% 86 30.02 0.0
10 21:47 SE 8 10.00 Clear SKC 84.2 66.2 55% 87 30.02 0.0
10 20:47 SE 10 13.00 Clear SKC 86 66.2 52% 88 30.01 0.0
10 19:50 SE 10 13.00 Clear SKC 89.6 64.4 43% 91 30 0.0
10 18:49 SE 13 13.00 Clear SKC 91.4 66.2 44% 94 29.99 0.0
10 17:56 E 13 13.00 Clear SKC 95 64.4 36% 97 29.98 0.0
10 16:47 NE 12 13.00 Clear SKC 96.8 64.4 34% 99 29.98 0.0
10 15:47 W 7 13.00 Mostly Cloudy BKN080 95 59 30% 94 29.99 0.0
10 14:55 N 5 13.00 Mostly Cloudy SCT080 BKN095 96.8 59 28% 96 30.01 0.0
10 13:47 Calm 13.00 Partly Cloudy SCT100 91.4 64.4 41% 93 30.02 0.0
10 12:47 Calm 10.00 Mostly Cloudy BKN050 BKN090 91.4 64.4 41% 93 30.04 0.0
10 11:47 Calm 10.00 A Few Clouds FEW080 89.6 66.2 46% 92 30.06 0.0
10 10:47 SW 6 10.00 A Few Clouds FEW080 87.8 66.2 49% 90 30.06 0.0
10 09:47 S 6 10.00 A Few Clouds FEW090 84.2 68 58% 87 30.07 0.0
10 08:47 Calm 10.00 A Few Clouds FEW090 82.4 66.2 58% 85 30.06 0.0
10 07:47 Calm 10.00 Partly Cloudy SCT090 78.8 66.2 65% 81 30.05 0.0
10 05:56 Calm 10.00 Partly Cloudy SCT090 78.8 66.2 65% 81 30.03 0.0
10 05:35 Calm 10.00 Mostly Cloudy BKN090 77.9 65.7 66% 80 30.03 0.0
10 05:15 Calm 10.00 Partly Cloudy SCT090 77.9 65.5 66% 80 30.02 0.0
10 04:55 Calm 10.00 Partly Cloudy SCT100 78.3 65.3 65% 80 30.02 0.0
10 04:35 Calm 10.00 Fair CLR 78.1 65.3 65% 80 30.02 0.0
10 04:15 Calm 10.00 Fair CLR 78.6 65.3 64% 81 30.02 0.0
10 03:55 Calm 10.00 Fair CLR 78.8 64.9 63% 81 30.01 0.0
10 03:35 Calm 10.00 Fair CLR 79.3 65.3 62% 81 30.01 0.0
10 03:15 S 3 10.00 Fair CLR 77.9 65.3 65% 80 30.01 0.0
10 02:55 S 6 10.00 Fair CLR 78.3 65.3 65% 80 30.02 0.0
10 02:35 S 3 10.00 Fair CLR 79.9 65.3 61% 82 30.02 0.0
10 02:15 Calm 10.00 Fair CLR 80.1 65.1 60% 82 30.02 0.0
10 01:55 S 5 10.00 Fair CLR 80.6 64.8 59% 82 30.02 0.0
10 01:35 S 7 10.00 Fair CLR 80.8 64.4 58% 82 30.02 0.0
10 01:15 S 6 10.00 Fair CLR 81 63.9 56% 82 30.02 0.0
10 00:55 SE 7 10.00 Fair CLR 81.3 63.1 91.8 81.3 54% 83 30.02 0.0
10 00:35 SE 6 10.00 Fair CLR 81.5 62.8 53% 83 30.02 0.0
10 00:15 SE 8 10.00 Fair CLR 82.2 62.1 51% 83 30.03 0.0
09 23:55 SE 8 10.00 Fair CLR 82.9 61.3 48% 84 30.03 0.0
09 23:35 SE 8 10.00 Fair CLR 83.8 60.8 46% 84 30.02 0.0
09 23:15 SE 8 10.00 Fair CLR 84.6 60.6 45% 85 30.01 0.0
09 22:55 E 7 10.00 Fair CLR 85.1 60.4 43% 85 30.01 0.0
09 22:35 E 6 10.00 Fair CLR 85.5 60.8 44% 86 30 0.0
09 22:15 E 5 10.00 Fair CLR 86 60.4 42% 86 29.99 0.0
09 21:47 E 6 10.00 Clear SKC 87.8 60.8 40% 88 29.98 0.0
09 20:47 E 3 13.00 Clear SKC 89.6 59 36% 89 29.97 0.0
Date Time (cdt) Wind (mph) Vis. (mi.) Weather Sky Cond. Air Dwpt Max. Min. Relative Humidity Wind Chill (°F) Heat Index (°F) altimeter (in) sea level (mb) 1 hr 3 hr 6 hr
6 hour
Temperature (ºF) Pressure Precipitation (in)